SAPPHIRE

Satellite information

Favourite Embed

Satellite Type and Status

PAYLOADIN ORBIT

Key statistics

Satellite SAPPHIRE at a glance.

Uptime

8840

Days in orbit

Revolutions

≈ 14.3

Per day

Orbit

LEO

Low Earth Orbit

Inclination

67.1

Latest

Satellite identification and parameters

Extended collection of information and parameters for SAPPHIRE.

Object identification

Identified? True

Debris? False

Object name: SAPPHIRE

International designator: 2001-043D

Object number (NORAD): 26932

Object ID (CCSDS): 26932

Country: UNITED STATES OF AMERICA (US)

Current information (Y/N): Y

RCS size: MEDIUM

Orbital parameters

Period: 100.613 minutes

Inclination: 67.0566 deg

SMA: 7165.78 km

Apoapsis: 793.467 km

Periapsis: 781.822 km

RAAN: 15.8259 deg

Eccentricy: 0.00081256

Argument of periapsis: 282.9367 deg

Mean anomaly: 77.0827 deg

Mean motion: 14.31223945 rev/day

Mean motion (dot): 0.00000197 rev/day2

B* drag term: 0.000105977 1/REarth

Two-line elements (TLE)

Creation date: Dec. 12, 2025, 10:14 a.m.

Reference frame: TEME

Reference center: EARTH

Epoch: Dec. 12, 2025, 6:58 a.m. UTC

TLE line 0: 0 SAPPHIRE

TLE line 1: 1 26932U 01043D 25346.29093761 .00000197 00000-0 10598-3 0 9990

TLE line 2: 2 26932 67.0566 15.8259 0008126 282.9367 77.0827 14.31223945263644

Live tracking on map

Real-time ground track for satellite SAPPHIRE.

In-orbit conjunctions

A list of the most updated potential collisions computed for object SAPPHIRE.

Target Orbit TCA Probability of collision Miss distance Type
COSMOS 1867 LEO 2025-12-10 02:58:07 0.003029461 55.0 (m) PAYLOAD
FENGYUN 1C DEB SSO 2025-09-21 16:45:26 0.0004763721 550.0 (m) DEBRIS
FENGYUN 1C DEB SSO 2025-09-01 08:11:23 0.000267132 632.0 (m) DEBRIS
SCOUT X-4 DEB LEO 2025-02-10 05:23:45 0.0001587 298.0 (m) DEBRIS
FENGYUN 1C DEB SSO 2025-01-31 10:48:18 0.0005673223 773.0 (m) DEBRIS

Associated space launch

Research (Atmospheric density) satellite built by Naval Research Laboratory (NRL) for NASA, USA.

SAPPHIRE was lifted into orbit during the mission ‘Athena I | Starshine-OSCAR-43’, on board a Athena I space rocket.

The launch took place on Sept. 30, 2001, 2:40 a.m. from Launch Pad 1.

For more information about the launch, click the button.

Launch to space Athena I | Starshine-OSCAR-43
Athena I | Starshine-OSCAR-43

Agency: N/A

Status: Launch Successful

Launch date: Sept. 30, 2001, 2:40 a.m. UTC

Rocket: Athena I

Launch pad: Launch Pad 1

Location: Pacific Spaceport Complex, Alaska, USA

...

Latest news about this satellite

There are no fresh news available about this satellite. Check back as we update our databases every day.


Newsletter sign-up

Weekly statistics, charts and insights to help you stay on top of the space industry.